KE5VT Weather Reports


time (UTC)temp
C
wind
direction
speed
KPH
gust
KPH
rain 1hr
cm
rain 24hr
cm
rain mn
cm
humidity
%
barometer
mb
20260505102015 12 313 0.0 0.0 0.00 0.00 0.00 86 1012.6
20260505101514 12 313 0.0 0.0 0.00 0.00 0.00 86 1012.6
20260505101010 12 249 0.0 0.0 0.00 0.00 0.00 85 1012.3
20260505100507 12 194 0.0 0.0 0.00 0.00 0.00 85 1012.4
20260505100003 12 205 0.0 0.0 0.00 0.00 0.00 85 1012.3
20260505095459 12 287 0.0 0.0 0.00 0.00 0.00 84 1012.2
20260505094956 13 287 0.0 0.0 0.00 0.00 0.00 84 1012.2
20260505094453 13 288 0.0 1.6 0.00 0.00 0.00 83 1012.1
20260505093949 13 289 0.0 0.0 0.00 0.00 0.00 83 1011.9
20260505093446 13 152 0.0 0.0 0.00 0.00 0.00 82 1011.9
20260505092943 13 140 0.0 0.0 0.00 0.00 0.00 82 1011.9
20260505092440 13 150 0.0 0.0 0.00 0.00 0.00 82 1011.7
20260505091938 13 128 0.0 0.0 0.00 0.00 0.00 81 1011.8
20260505091435 13 284 1.6 3.2 0.00 0.00 0.00 81 1012.0
20260505090933 13 249 1.6 3.2 0.00 0.00 0.00 80 1011.7
20260505090431 13 117 0.0 0.0 0.00 0.00 0.00 80 1011.6
20260505085928 13 149 0.0 0.0 0.00 0.00 0.00 80 1011.8
20260505085426 13 133 0.0 0.0 0.00 0.00 0.00 79 1011.7
20260505084924 13 62 0.0 1.6 0.00 0.00 0.00 79 1011.8
20260505084422 13 195 0.0 1.6 0.00 0.00 0.00 79 1011.6
20260505083920 13 150 0.0 0.0 0.00 0.00 0.00 78 1011.7
20260505083417 13 144 0.0 0.0 0.00 0.00 0.00 78 1011.6
20260505082913 13 274 0.0 0.0 0.00 0.00 0.00 78 1011.5
20260505082409 14 170 0.0 0.0 0.00 0.00 0.00 77 1011.7
20260505081906 14 278 0.0 0.0 0.00 0.00 0.00 77 1011.6
20260505081403 14 261 1.6 3.2 0.00 0.00 0.00 77 1011.6
20260505080859 14 156 0.0 0.0 0.00 0.00 0.00 77 1011.7
20260505080355 14 255 0.0 0.0 0.00 0.00 0.00 76 1011.6
20260505075851 14 206 0.0 0.0 0.00 0.00 0.00 76 1011.7
20260505075348 14 190 0.0 0.0 0.00 0.00 0.00 76 1011.6
20260505074845 14 170 0.0 0.0 0.00 0.00 0.00 76 1011.6
20260505074342 14 224 0.0 0.0 0.00 0.00 0.00 76 1011.7
20260505073840 14 130 0.0 0.0 0.00 0.00 0.00 75 1011.5
20260505073338 14 147 0.0 0.0 0.00 0.00 0.00 75 1011.5
20260505072834 14 133 0.0 0.0 0.00 0.00 0.00 74 1011.7
20260505072330 14 282 0.0 0.0 0.00 0.00 0.00 74 1011.6
20260505071826 14 135 0.0 0.0 0.00 0.00 0.00 73 1011.5
20260505071323 14 89 0.0 0.0 0.00 0.00 0.00 73 1011.7
20260505070821 15 139 0.0 0.0 0.00 0.00 0.00 73 1011.6
20260505070318 15 179 0.0 0.0 0.00 0.00 0.00 72 1011.7
20260505065813 15 135 0.0 0.0 0.00 0.00 0.00 72 1011.5
20260505065310 15 150 0.0 0.0 0.00 0.00 0.00 71 1011.7
20260505064807 15 166 0.0 0.0 0.00 0.00 0.00 71 1011.5
20260505064304 15 158 0.0 0.0 0.00 0.00 0.00 71 1011.6
20260505063802 15 311 0.0 0.0 0.00 0.00 0.00 70 1011.7
20260505063258 15 143 0.0 0.0 0.00 0.00 0.00 71 1011.4
20260505062754 15 296 0.0 3.2 0.00 0.00 0.00 70 1011.6
20260505062252 15 286 1.6 3.2 0.00 0.00 0.00 70 1011.5
20260505061749 15 157 0.0 0.0 0.00 0.00 0.00 70 1011.6
20260505061247 15 200 0.0 0.0 0.00 0.00 0.00 70 1011.7
20260505060744 15 175 0.0 0.0 0.00 0.00 0.00 70 1011.8
20260505060241 15 164 0.0 0.0 0.00 0.00 0.00 70 1011.7
20260505055736 15 162 0.0 0.0 0.00 0.00 0.00 69 1011.8
20260505055233 15 139 0.0 0.0 0.00 0.00 0.00 69 1011.7
20260505054730 15 169 0.0 0.0 0.00 0.00 0.00 68 1011.7
20260505054228 15 160 0.0 0.0 0.00 0.00 0.00 68 1011.7
20260505053726 15 162 0.0 0.0 0.00 0.00 0.00 68 1011.7
20260505053222 15 143 0.0 0.0 0.00 0.00 0.00 67 1011.8
20260505052719 15 143 0.0 0.0 0.00 0.00 0.00 66 1011.9
20260505052216 15 160 0.0 0.0 0.00 0.00 0.00 66 1012.0
20260505051713 16 135 0.0 0.0 0.00 0.00 0.00 65 1011.8
20260505051211 16 145 0.0 0.0 0.00 0.00 0.00 65 1012.0
20260505050709 16 157 0.0 0.0 0.00 0.00 0.00 64 1011.9
20260505050207 16 200 0.0 0.0 0.00 0.00 0.00 63 1012.1
20260505041642 16 165 0.0 0.0 0.00 0.00 0.00 56 1012.0
20260505041140 17 139 0.0 0.0 0.00 0.00 0.00 55 1012.0
20260505040636 17 144 0.0 0.0 0.00 0.00 0.00 55 1012.2
20260505040134 17 148 0.0 0.0 0.00 0.00 0.00 54 1012.0
20260505035630 17 155 0.0 0.0 0.00 0.00 0.00 53 1011.9
20260505035126 17 146 0.0 0.0 0.00 0.00 0.00 53 1011.9
20260505034623 17 136 0.0 0.0 0.00 0.00 0.00 54 1012.0
20260505034120 17 142 0.0 0.0 0.00 0.00 0.00 52 1012.0
20260505033617 17 141 0.0 0.0 0.00 0.00 0.00 52 1012.0
20260505033115 17 152 0.0 0.0 0.00 0.00 0.00 51 1012.0
20260505032613 18 166 0.0 0.0 0.00 0.00 0.00 50 1011.9
20260505032109 18 149 0.0 0.0 0.00 0.00 0.00 50 1012.0
20260505031606 18 146 0.0 0.0 0.00 0.00 0.00 49 1011.8
20260505031102 18 144 0.0 0.0 0.00 0.00 0.00 50 1011.8
20260505030600 18 140 0.0 0.0 0.00 0.00 0.00 49 1011.9
20260505030055 18 159 0.0 0.0 0.00 0.00 0.00 48 1011.9
20260505025551 18 222 0.0 0.0 0.00 0.00 0.00 48 1011.9
20260505025051 18 163 0.0 0.0 0.00 0.00 0.00 48 1012.0
20260505024547 18 151 0.0 0.0 0.00 0.00 0.00 47 1011.9
20260505024044 18 141 0.0 0.0 0.00 0.00 0.00 47 1011.8
20260505023541 19 144 0.0 0.0 0.00 0.00 0.00 46 1011.9
20260505023039 19 147 0.0 0.0 0.00 0.00 0.00 45 1012.1
20260505022536 19 155 0.0 0.0 0.00 0.00 0.00 44 1011.9
20260505022033 20 135 0.0 0.0 0.00 0.00 0.00 44 1011.8
20260505021530 20 155 0.0 0.0 0.00 0.00 0.00 43 1011.8
20260505021027 20 148 0.0 0.0 0.00 0.00 0.00 43 1011.7
20260505020526 20 158 0.0 0.0 0.00 0.00 0.00 42 1011.5
20260505020024 20 314 1.6 6.4 0.00 0.00 0.00 41 1011.5
20260505015521 20 280 3.2 4.8 0.00 0.00 0.00 41 1011.5
20260505015018 20 225 0.0 0.0 0.00 0.00 0.00 40 1011.5
20260505014514 21 252 3.2 6.4 0.00 0.00 0.00 40 1011.4
20260505014012 21 196 0.0 0.0 0.00 0.00 0.00 39 1011.2
20260505013509 21 333 0.0 0.0 0.00 0.00 0.00 39 1011.1
20260505013006 21 166 0.0 0.0 0.00 0.00 0.00 39 1011.4
20260505012504 21 179 0.0 0.0 0.00 0.00 0.00 38 1011.2
20260505012001 21 150 0.0 0.0 0.00 0.00 0.00 38 1011.1
20260505011456 21 174 0.0 0.0 0.00 0.00 0.00 38 1011.0
20260505010954 21 158 0.0 0.0 0.00 0.00 0.00 39 1011.1
20260505010449 21 153 0.0 0.0 0.00 0.00 0.00 37 1011.0
20260505005945 21 151 0.0 0.0 0.00 0.00 0.00 39 1010.8
20260505005442 21 157 0.0 0.0 0.00 0.00 0.00 39 1010.9
20260505004940 21 153 0.0 0.0 0.00 0.00 0.00 38 1010.7
20260505004436 21 176 0.0 0.0 0.00 0.00 0.00 38 1010.7
20260505003933 21 330 0.0 0.0 0.00 0.00 0.00 36 1010.6
20260505003431 21 330 0.0 0.0 0.00 0.00 0.00 36 1010.5
20260505002927 21 277 0.0 1.6 0.00 0.00 0.00 36 1010.7
20260505002423 22 158 0.0 0.0 0.00 0.00 0.00 37 1010.5
20260505001922 22 160 0.0 0.0 0.00 0.00 0.00 36 1010.7
20260505001419 22 155 0.0 0.0 0.00 0.00 0.00 35 1010.6
20260505000916 22 143 0.0 0.0 0.00 0.00 0.00 35 1010.6
20260505000414 22 148 0.0 0.0 0.00 0.00 0.00 35 1010.6
20260504235910 22 128 0.0 0.0 0.00 0.00 0.00 35 1010.7
20260504235408 22 145 0.0 0.0 0.00 0.00 0.00 35 1010.6
20260504234903 23 133 0.0 0.0 0.00 0.00 0.00 34 1010.3
20260504234401 23 142 0.0 0.0 0.00 0.00 0.00 34 1010.3
20260504233857 23 139 0.0 0.0 0.00 0.00 0.00 35 1010.1
20260504233353 23 126 0.0 0.0 0.00 0.00 0.00 35 1010.3
20260504232850 23 145 3.2 9.7 0.00 0.00 0.00 34 1010.3
20260504232347 23 148 0.0 0.0 0.00 0.00 0.00 34 1010.1
20260504231844 23 145 0.0 0.0 0.00 0.00 0.00 34 1010.1
20260504231341 24 250 0.0 0.0 0.00 0.00 0.00 33 1010.2
20260504230837 24 126 6.4 11.3 0.00 0.00 0.00 32 1010.0
20260504230335 24 298 4.8 6.4 0.00 0.00 0.00 32 1010.0
20260504225833 25 164 0.0 0.0 0.00 0.00 0.00 31 1009.9
20260504225329 25 239 0.0 1.6 0.00 0.00 0.00 31 1010.0
20260504224827 25 143 1.6 1.6 0.00 0.00 0.00 30 1010.1
20260504224324 25 105 0.0 1.6 0.00 0.00 0.00 30 1010.1
20260504223820 25 295 3.2 6.4 0.00 0.00 0.00 30 1010.0
20260504223316 25 288 0.0 1.6 0.00 0.00 0.00 30 1010.1
20260504222813 25 259 6.4 9.7 0.00 0.00 0.00 30 1010.1
20260504222309 25 270 3.2 9.7 0.00 0.00 0.00 30 1010.1
20260504221808 26 279 6.4 9.7 0.00 0.00 0.00 30 1009.8
20260504221304 26 118 0.0 0.0 0.00 0.00 0.00 29 1009.9
20260504220801 26 186 0.0 0.0 0.00 0.00 0.00 31 1010.2
20260504220258 26 303 3.2 4.8 0.00 0.00 0.00 30 1010.1
20260504215755 27 175 0.0 0.0 0.00 0.00 0.00 30 1010.2
20260504215251 26 146 0.0 0.0 0.00 0.00 0.00 30 1010.1
20260504214747 27 291 1.6 6.4 0.00 0.00 0.00 28 1010.0
20260504214244 27 121 0.0 0.0 0.00 0.00 0.00 28 1010.1
20260504213741 26 143 0.0 0.0 0.00 0.00 0.00 28 1010.1
20260504213237 26 243 6.4 9.7 0.00 0.00 0.00 27 1009.9
20260504212734 26 112 0.0 0.0 0.00 0.00 0.00 28 1010.1
20260504212231 26 244 0.0 0.0 0.00 0.00 0.00 28 1010.1
20260504211729 26 196 0.0 0.0 0.00 0.00 0.00 28 1009.9
20260504211224 26 327 4.8 9.7 0.00 0.00 0.00 28 1010.1
20260504210722 26 258 9.7 11.3 0.00 0.00 0.00 27 1010.1
20260504210219 27 203 0.0 0.0 0.00 0.00 0.00 25 1010.2
20260504205716 27 91 0.0 0.0 0.00 0.00 0.00 26 1010.3
20260504205214 27 256 6.4 6.4 0.00 0.00 0.00 25 1010.2
20260504204712 26 205 0.0 0.0 0.00 0.00 0.00 26 1010.5
20260504204210 25 250 6.4 11.3 0.00 0.00 0.00 26 1010.3
20260504203709 25 282 3.2 4.8 0.00 0.00 0.00 27 1010.5
20260504203206 26 8 3.2 3.2 0.00 0.00 0.00 25 1010.5
20260504202706 26 291 6.4 11.3 0.00 0.00 0.00 25 1010.5
20260504202203 27 120 3.2 4.8 0.00 0.00 0.00 25 1010.8
20260504201700 26 120 0.0 0.0 0.00 0.00 0.00 26 1010.7
20260504201158 26 284 3.2 3.2 0.00 0.00 0.00 25 1010.7
20260504200655 26 291 9.7 12.9 0.00 0.00 0.00 21 1010.7
20260504200151 26 106 3.2 6.4 0.00 0.00 0.00 23 1010.8
20260504195647 25 145 0.0 0.0 0.00 0.00 0.00 29 1010.8
20260504195143 25 84 1.6 3.2 0.00 0.00 0.00 27 1011.0
20260504194641 25 95 1.6 3.2 0.00 0.00 0.00 26 1010.8
20260504194137 25 154 1.6 3.2 0.00 0.00 0.00 28 1011.1
20260504193633 26 258 1.6 4.8 0.00 0.00 0.00 30 1011.0
20260504193131 26 186 0.0 0.0 0.00 0.00 0.00 27 1011.1
20260504192629 26 139 0.0 1.6 0.00 0.00 0.00 29 1011.2
20260504192127 25 296 0.0 0.0 0.00 0.00 0.00 30 1011.4
20260504191625 25 242 0.0 0.0 0.00 0.00 0.00 31 1011.3
20260504191121 25 298 4.8 4.8 0.00 0.00 0.00 28 1011.4
20260504190617 25 89 0.0 0.0 0.00 0.00 0.00 32 1011.3
20260504190114 25 11 0.0 1.6 0.00 0.00 0.00 30 1011.4
20260504185610 25 344 1.6 3.2 0.00 0.00 0.00 31 1011.5
20260504185107 25 234 0.0 1.6 0.00 0.00 0.00 31 1011.6
20260504184602 24 203 0.0 0.0 0.00 0.00 0.00 30 1011.6
20260504184058 25 161 0.0 0.0 0.00 0.00 0.00 29 1011.7
20260504183555 25 34 0.0 0.0 0.00 0.00 0.00 30 1011.8
20260504183053 24 241 0.0 0.0 0.00 0.00 0.00 31 1012.0
20260504182550 25 248 4.8 6.4 0.00 0.00 0.00 30 1012.0
20260504182047 23 106 0.0 0.0 0.00 0.00 0.00 31 1012.2
20260504181544 23 111 0.0 0.0 0.00 0.00 0.00 30 1012.2
20260504181043 23 241 0.0 0.0 0.00 0.00 0.00 32 1012.3
20260504180541 24 268 12.9 16.1 0.00 0.00 0.00 29 1012.4
20260504180040 23 5 4.8 6.4 0.00 0.00 0.00 29 1012.0
20260504175536 23 232 3.2 6.4 0.00 0.00 0.00 29 1012.1
20260504175033 25 307 1.6 4.8 0.00 0.00 0.00 27 1012.3
20260504174531 22 53 0.0 0.0 0.00 0.00 0.00 32 1012.2
20260504174028 23 271 3.2 6.4 0.00 0.00 0.00 32 1012.4
20260504173525 23 285 6.4 11.3 0.00 0.00 0.00 32 1012.4
20260504173022 23 114 0.0 0.0 0.00 0.00 0.00 32 1012.3
20260504172518 23 182 0.0 0.0 0.00 0.00 0.00 33 1012.4
20260504172015 22 301 1.6 1.6 0.00 0.00 0.00 32 1012.4
20260504171512 23 22 0.0 0.0 0.00 0.00 0.00 31 1012.5
20260504171009 22 294 0.0 0.0 0.00 0.00 0.00 31 1012.5
20260504170504 25 319 1.6 3.2 0.00 0.00 0.00 31 1012.5
20260504160425 21 171 0.0 0.0 0.00 0.00 0.00 40 1013.7
20260504150848 18 177 0.0 0.0 0.00 0.00 0.00 51 1013.7
20260504150345 18 133 0.0 1.6 0.00 0.00 0.00 51 1013.7
20260504141315 16 255 1.6 3.2 0.00 0.00 0.00 59 1013.8
20260504140812 16 269 0.0 0.0 0.00 0.00 0.00 60 1013.9
20260504140307 15 226 0.0 0.0 0.00 0.00 0.00 63 1013.9
20260504130736 12 268 0.0 1.6 0.00 0.00 0.00 71 1013.6
20260504130232 12 186 0.0 0.0 0.00 0.00 0.00 74 1013.5
20260504120156 10 217 0.0 0.0 0.00 0.00 0.00 82 1013.3
20260504110623 8 149 0.0 0.0 0.00 0.00 0.00 86 1013.3
20260504110119 8 150 0.0 0.0 0.00 0.00 0.00 87 1013.2